Content
SEND FEEDBACK

Daily
Averages
Monthly
Summary
United States of America

PERU, VERMONT


Home > North America > United States > Vermont
Elevation: 506 meters     Latitude: 43 14N     Longitude: 072 54W

WEATHER
 
SELECT A DAY
Number of Records: 454,983;   Date Range: 1/1/95 - 8/30/14
 
SHARE

PRINT THIS DATA

[ ← Previous Day ]
WEATHER ALMANAC - 17 FEBRUARY, 2014
[ Next Day → ]
[ °F ]   °C
Weather ElementAverageHighLow
Temperature-13.3 °C-8 °C (2:15 pm)-19 °C (7:15 am)
Dewpoint-21.7 °C-19 °C (1:35 am)-24 °C (11:15 am)
Humidity51.9 %78 % (7:35 am)32 % (1:15 pm)
Barometer1024.4 hPa1027.1 hPa (6:35 pm)1016.9 hPa (12:35 am)
Wind Speed9.8 km/h22.2 km/h (10:55 am)
Wind Gust29.6 km/h (10:55 am)
Weather ElementAverage
Visibility16.1 km
Wind DirectionSSW (196.9 °)

Weather ElementTotal
Precipitation---
Heating Degree Days31.8 (Base 18.3)
Averaged from 71 records on 17 February, 2014
WEATHER CONDITIONS BREAKOUT
WIND DIRECTION BREAKOUT
WEATHER BY HOUR - 17 FEBRUARY, 2014
[ °F ]   °C
Local TimeTemperatureDewpointHumidityBarometerVisibilityWind DirectionWind SpeedGust SpeedPrecipitationEventsConditions
12:35 AM-13 °C-20 °C57 %1016.9 hPa16.1 kmNW (310°)5.6 km/hClear
12:55 AM-13 °C-21 °C52 %1017.3 hPa16.1 kmNW (310°)7.4 km/hClear
1:15 AM-13 °C-21 °C52 %1017.6 hPa16.1 kmNorth (350°)5.6 km/hClear
1:35 AM-13 °C-19 °C62 %1017.9 hPa16.1 kmNNW (330°)5.6 km/hClear
1:55 AM-14 °C-22 °C52 %1018.3 hPa16.1 kmCalmClear
2:15 AM-14 °C-22 °C52 %1018.6 hPa16.1 kmCalmClear
2:35 AM-14 °C-20 °C61 %1019 hPa16.1 kmNNE (20°)5.6 km/hClear
2:55 AM-15 °C-23 °C52 %1019 hPa16.1 kmCalmClear
3:15 AM-14 °C-21 °C56 %1019.3 hPa16.1 kmCalmClear
3:35 AM-15 °C-21 °C61 %1019.6 hPa16.1 kmWNW (300°)11.1 km/hClear
3:55 AM-15 °C-22 °C56 %1020 hPa16.1 kmNW (320°)5.6 km/hClear
4:15 AM-15 °C-22 °C56 %1020.7 hPa16.1 kmWNW (300°)7.4 km/hClear
4:35 AM-16 °C-22 °C61 %1021 hPa16.1 kmCalmClear
4:55 AM-16 °C-21 °C66 %1021.3 hPa16.1 kmNW (320°)7.4 km/hClear
5:15 AM-16 °C-22 °C61 %1021.7 hPa16.1 kmWest (280°)7.4 km/hClear
5:35 AM-16 °C-22 °C61 %1022 hPa16.1 kmCalmClear
5:55 AM-17 °C-23 °C61 %1022.4 hPa16.1 kmNW (320°)7.4 km/hClear
6:15 AM-16 °C-21 °C66 %1022.7 hPa16.1 kmNNW (330°)9.3 km/hClear
6:35 AM-18 °C-22 °C72 %1023 hPa16.1 kmCalmClear
6:55 AM-18 °C-22 °C72 %1023.4 hPa16.1 kmCalmClear
7:15 AM-19 °C-23 °C71 %1023.7 hPa16.1 kmCalmClear
7:35 AM-18 °C-21 °C78 %1024.4 hPa16.1 kmCalmClear
7:55 AM-17 °C-21 °C72 %1024.7 hPa16.1 kmNorth (360°)5.6 km/hClear
8:15 AM-16 °C-23 °C56 %1025.1 hPa16.1 kmNorth (350°)9.3 km/hClear
8:35 AM-16 °C-21 °C66 %1025.4 hPa16.1 kmNorth (10°)13 km/hClear
8:55 AM-15 °C-21 °C61 %1025.7 hPa16.1 kmNorth (10°)16.7 km/hClear
9:15 AM-14 °C-22 °C52 %1025.7 hPa16.1 kmNorth (350°)11.1 km/hClear
9:35 AM-13 °C-20 °C57 %1025.7 hPa16.1 kmNW (320°)11.1 km/hClear
9:55 AM-13 °C-22 °C48 %1026.1 hPa16.1 kmNNW (330°)11.1 km/hClear
10:15 AM-12 °C-22 °C44 %1026.1 hPa16.1 kmNNW (330°)18.5 km/hClear
10:35 AM-12 °C-23 °C41 %1026.4 hPa16.1 kmNW (320°)14.8 km/hClear
10:55 AM-12 °C-23 °C41 %1026.8 hPa16.1 kmNorth (350°)22.2 km/h29.6 km/hClear
11:15 AM-11 °C-24 °C34 %1026.8 hPa16.1 kmNorth (350°)18.5 km/h27.8 km/hClear
11:35 AM-11 °C-23 °C38 %1026.8 hPa16.1 kmNorth (350°)20.4 km/h29.6 km/hClear
11:55 AM-11 °C-23 °C38 %1026.8 hPa16.1 kmNNW (330°)14.8 km/h29.6 km/hClear
12:15 PM-11 °C-24 °C34 %1026.4 hPa16.1 kmNNW (330°)13 km/h29.6 km/hClear
12:35 PM-10 °C-23 °C35 %1026.4 hPa16.1 kmNorth (360°)20.4 km/h27.8 km/hClear
12:55 PM-10 °C-22 °C38 %1026.4 hPa16.1 kmNorth (360°)20.4 km/hClear
1:15 PM-9 °C-23 °C32 %1026.4 hPa16.1 kmNW (320°)13 km/hClear
1:35 PM-9 °C-23 °C32 %1026.8 hPa16.1 kmNW (320°)18.5 km/h27.8 km/hClear
1:55 PM-9 °C-22 °C35 %1026.8 hPa16.1 kmNNW (340°)18.5 km/h25.9 km/hClear
2:15 PM-8 °C-22 °C32 %1026.8 hPa16.1 kmNW (320°)14.8 km/hClear
2:35 PM-8 °C-22 °C32 %1026.8 hPa16.1 kmNNW (340°)16.7 km/hClear
2:55 PM-8 °C-22 °C32 %1026.8 hPa16.1 kmNorth (350°)18.5 km/hClear
3:15 PM-8 °C-22 °C32 %1026.8 hPa16.1 kmNorth (350°)11.1 km/hClear
3:35 PM-8 °C-22 °C32 %1026.8 hPa16.1 kmNorth (360°)14.8 km/hClear
3:55 PM-8 °C-22 °C32 %1026.8 hPa16.1 kmNNW (340°)13 km/hClear
4:15 PM-8 °C-22 °C32 %1026.8 hPa16.1 kmNorth (10°)9.3 km/hClear
4:35 PM-8 °C-21 °C35 %1026.8 hPa16.1 kmCalmClear
4:55 PM-8 °C-22 °C32 %1026.8 hPa16.1 kmNW (310°)7.4 km/hClear
5:15 PM-8 °C-22 °C32 %1026.4 hPa16.1 kmNNW (330°)5.6 km/hClear
5:35 PM-9 °C-22 °C35 %1026.8 hPa16.1 kmCalmClear
5:55 PM-9 °C-21 °C38 %1026.8 hPa16.1 kmCalmClear
6:15 PM-12 °C-21 °C48 %1026.8 hPa16.1 kmCalmClear
6:35 PM-12 °C-22 °C44 %1027.1 hPa16.1 kmESE (110°)5.6 km/hClear
6:55 PM-13 °C-19 °C62 %1027.1 hPa16.1 kmCalmClear
7:15 PM-14 °C-20 °C61 %1026.8 hPa16.1 kmEast (90°)5.6 km/hClear
7:35 PM-14 °C-21 °C56 %1027.1 hPa16.1 kmESE (120°)9.3 km/hClear
7:55 PM-14 °C-21 °C56 %1027.1 hPa16.1 kmESE (120°)13 km/hClear
8:15 PM-16 °C-22 °C61 %1027.1 hPa16.1 kmSE (140°)13 km/hClear
8:35 PM-14 °C-20 °C61 %1027.1 hPa16.1 kmSE (140°)18.5 km/hClear
8:55 PM-15 °C-20 °C66 %1026.8 hPa16.1 kmESE (120°)18.5 km/hClear
9:15 PM-16 °C-21 °C66 %1025.4 hPa16.1 kmEast (100°)14.8 km/hClear
9:35 PM-16 °C-23 °C56 %1025.1 hPa16.1 kmSE (140°)18.5 km/hClear
9:55 PM-16 °C-21 °C66 %1024.7 hPa16.1 kmSE (130°)16.7 km/hClear
10:15 PM-16 °C-22 °C61 %1024.7 hPa16.1 kmSE (130°)16.7 km/hClear
10:35 PM-16 °C-22 °C61 %1025.1 hPa16.1 kmESE (110°)13 km/hClear
10:55 PM-17 °C-23 °C61 %1025.1 hPa16.1 kmSE (140°)7.4 km/hClear
11:15 PM-18 °C-22 °C72 %1025.4 hPa16.1 kmSE (140°)14.8 km/hClear
11:35 PM-18 °C-22 °C72 %1025.1 hPa16.1 kmESE (120°)13 km/hClear
11:55 PM-17 °C-22 °C66 %1024.7 hPa16.1 kmSE (140°)13 km/hClear
Hourly data recorded from KRUT, located 0 kilometers away from Peru, Vermont







STORIES FROM OUR PARTNERS